SCP
0 0 0 0 0 0 0 0 0 0 0 0 0 0 0 0 0 0 0 0 0 0 0 0 0 0 0 -0 0 0 0 0 0 0 0 0 0 0 0 0 0 0 0 0 0
0 0 0 0 0 0 0 0 0 0 0 0 0 0 0 0 0 0 0 0 0 0 0 0 0 0 0 0 0 0 0 0 0 0 0 0 0 0 0 0 0 0 0 0 0
0 0 0 0 0 0 0 0 0 0 0 0 0 0 0 0 0 0 0 0 0 0 0 0 0 0 0 0 0 0 0 0 0 0 0 0 0 0 0 0 0 0 0 0 0
0 0 0 0 0 0 0 0 0 0 0 0 0 0 0 0 0 0 0 0 0 0 0 0 0 0 0 0 0 0 0 0 0 0 0 0 0 0 0 0 0 0 0 0 0
0 0 -0 -0 0 0 0 0 0 0 0 0 0 0 0 -0 -0 0 0 0 0 0 0 0 0 0 0 0 0 0 -0 0 0 0 0 0 0 0 0 0 0 0 0 0 0
0 -0 -0 -0 0 0 0 0 0 0 -0 -0 0 0 -0 0 0 0 0 0 0 0 0 0 0 0 0 0 0 0 0 0 0 0 0 0 0 0 0 0 0 0 0 0 0
-0 -0 -0 0 0 0 0 0 0 0 -0 -0 -0 -0 -0 0 0 0 0 0 0 0 0 0 0 0 0 0 0 0 0 0 0 0 0 0 0 0 0 0 0 0 0 0 0
0 -0 -0 -0 0 0 0 0 0 0 0 -0 -0 -0 -0 -0 0 0 0 0 0 0 0 0 0 0 0 0 0 0 0 0 0 0 0 0 0 0 0 0 0 0 0 0 0
0 -0 -0 -0 0 0 0 0 0 0 0 -0 -0 -0 -0 -0 -0 0 0 0 0 0 0 0 0 0 0 0 0 0 0 0 0 0 0 0 0 0 0 0 0 0 0 0 0
-0 -0 -0 -0 0 0 0 0 0 0 0 0 -0 -0 -0 -0 -0 0 0 0 0 0 0 0 0 0 0 0 0 0 0 0 0 0 0 0 0 0 0 0 0 0 0 0 0
-0 -0 -0 -0 0 0 0 0 0 0 -0 0 0 0 0 -0 -0 0 0 0 0 0 0 0 0 0 0 0 0 0 0 0 0 0 0 0 0 0 0 0 0 0 0 0 0
-0 -0 -0 -0 0 0 0 0 0 0 -0 -0 0 0 0 -0 -0 0 0 0 0 0 0 0 0 0 0 0 0 0 0 0 0 0 0 0 0 0 0 0 0 0 0 0 0
-0 -0 -0 -0 0 0 0 0 0 0 0 -0 0 0 0 -0 -0 0 0 0 0 0 0 0 0 0 0 0 0 0 0 0 0 0 0 0 0 0 0 0 0 0 0 0 0
-0 -0 -0 -0 0 0 0 0 0 0 0 -0 0 0 0 0 -0 -0 0 0 0 0 0 0 0 0 0 0 0 0 0 0 0 0 0 0 0 0 0 0 0 0 0 0 0
-0 -0 -0 0 0 0 0 0 0 0 -0 -0 0 -0 0 -0 0 0 -0 0 0 0 0 0 0 0 0 0 0 0 0 0 0 0 0 0 0 0 0 0 0 0 0 0 0
-0 -0 0 0 0 0 0 0 0 0 -0 -0 0 0 0 -0 0 -0 -0 0 0 0 0 0 0 0 0 0 0 0 0 0 0 0 0 0 0 0 0 0 0 0 0 0 0
-0 0 0 0 0 0 0 0 0 0 -0 -0 0 0 0 0 0 -0 -0 0 0 0 0 0 0 0 0 0 0 0 0 0 0 0 0 0 0 0 0 0 0 0 0 0 0
0 0 0 0 0 0 0 0 0 0 0 -0 0 0 0 0 0 -0 -0 -0 -0 0 0 0 0 0 0 0 0 0 0 0 0 0 0 0 0 0 0 0 0 0 0 0 0
0 0 0 0 0 0 0 0 0 0 -0 -0 0 0 0 0 0 0 -0 -0 -0 -0 0 0 0 0 0 0 0 0 0 0 0 0 0 0 0 0 0 0 0 0 0 0 0
0 0 0 0 0 0 0 0 0 0 0 0 -0 0 0 0 0 0 0 0 -0 -0 -0 0 0 0 0 0 0 0 0 0 0 0 0 0 0 0 0 0 0 0 0 0 0
0 0 0 0 0 0 0 0 0 0 0 0 -0 -0 0 0 0 0 0 0 0 0 -0 0 0 0 0 0 0 0 0 0 0 0 0 0 0 0 0 0 0 0 0 0 0
0 0 0 0 0 0 0 0 0 0 0 0 0 -0 0 0 0 0 0 0 0 0 0 0 0 0 0 0 0 0 0 0 0 0 0 0 0 0 0 0 0 0 0 0 0
0 0 0 0 0 0 0 0 0 0 0 0 0 -0 -0 0 0 0 0 -0 0 0 0 0 0 0 0 0 0 0 0 0 0 0 0 0 0 0 0 0 0 0 0 0 0
0 0 0 0 0 0 0 0 0 0 0 0 0 0 -0 -0 0 0 0 0 0 0 0 0 0 0 0 0 0 0 0 0 0 0 0 0 0 0 0 0 0 0 0 0 0
0 0 0 0 0 0 0 0 0 0 0 0 0 0 -0 -0 -0 0 0 0 0 -0 0 0 0 0 0 0 0 0 0 0 0 0 0 0 0 0 0 0 0 0 0 0 0
0 0 0 0 0 0 0 0 0 0 0 0 0 0 0 -0 -0 0 0 0 0 0 0 0 0 0 0 0 0 0 0 0 0 0 0 0 0 0 0 0 0 0 0 0 0
0 0 0 0 0 0 0 0 0 0 0 0 0 0 0 0 -0 0 0 0 0 0 0 0 0 0 0 0 0 0 0 -0 0 0 0 0 0 0 0 0 0 0 0 0 0
Wind_Speed_500mb
29 31 32 33 36 37 38 38 41 45 43 44 47 47 49 54 55 61 64 59 56 49 35 28 22 30 46 51 22 15 9 19 27 19 10 9 13 7 14 14 13 16 3 11 43
29 31 34 36 37 39 40 40 44 44 45 45 46 52 52 53 56 78 73 61 65 50 43 47 30 24 27 35 28 11 7 21 12 17 9 5 13 15 14 18 16 17 17 21 50
29 30 35 39 41 42 43 43 42 43 47 45 47 54 47 44 46 74 61 64 68 54 51 38 36 30 28 26 27 15 13 26 25 21 9 6 8 13 15 19 26 33 33 34 56
27 30 34 39 44 45 46 47 46 44 44 46 43 49 41 33 16 8 19 39 60 57 53 49 29 43 21 25 43 17 38 54 46 25 11 8 8 10 25 10 8 17 37 40 58
29 33 37 37 42 46 50 52 51 49 47 43 40 49 45 28 37 37 26 22 37 61 60 51 41 51 30 22 33 29 38 58 57 28 20 11 14 9 17 24 6 20 37 42 52
31 35 40 38 40 43 50 54 58 54 49 41 37 41 43 14 35 45 60 31 29 64 60 57 32 45 33 20 41 41 41 36 35 38 19 16 12 9 8 19 23 19 36 43 48
31 35 39 39 43 47 50 56 60 58 51 39 29 36 35 27 30 25 45 23 22 54 50 49 37 39 21 17 26 18 34 31 32 21 14 16 18 20 21 10 18 26 29 36 43
28 32 36 41 46 50 53 59 55 53 42 31 25 28 20 24 34 28 35 26 25 36 38 40 39 27 16 18 13 25 19 33 40 25 20 26 37 27 30 21 21 24 29 35 43
27 31 36 41 47 53 55 54 49 39 8 25 18 19 14 12 27 36 35 28 17 27 36 32 35 24 11 22 15 31 33 47 27 26 23 32 24 28 12 28 34 25 30 33 34
27 30 36 42 48 52 50 53 43 18 31 7 7 11 7 12 26 16 34 21 18 27 27 35 29 22 23 30 39 37 44 21 36 17 27 26 32 10 8 18 28 30 22 29 35
25 30 35 41 45 42 51 57 30 14 46 14 42 32 34 25 21 15 32 21 17 34 22 37 23 38 55 47 30 31 28 36 14 11 18 38 36 35 25 15 17 29 27 29 38
25 29 32 38 38 35 39 28 24 26 26 20 22 20 20 19 13 14 33 12 20 31 22 20 37 33 32 29 28 28 32 29 5 4 11 9 34 30 26 27 40 33 28 30 41
26 28 31 34 28 34 29 38 27 22 11 23 19 15 16 7 6 11 15 2 20 29 31 26 2 21 27 26 26 16 29 22 13 9 3 6 16 22 22 34 26 40 49 44 42
25 27 30 30 15 33 22 42 30 19 5 20 20 22 22 13 3 12 9 2 7 31 25 8 7 31 31 31 29 22 6 16 24 17 12 1 14 19 25 27 23 38 42 48 53
24 25 26 24 23 26 38 43 35 5 7 31 15 15 34 8 7 18 20 11 3 12 14 12 21 27 28 27 28 16 18 10 11 11 2 10 11 29 8 20 26 30 45 55 65
21 22 20 19 22 29 36 40 17 3 10 14 17 31 26 10 4 6 8 13 10 7 5 4 3 14 11 6 20 26 18 12 9 2 14 17 19 25 23 11 9 21 20 30 32
17 15 16 20 22 28 36 23 4 9 13 22 20 28 24 10 3 4 3 7 7 7 10 5 5 2 13 18 16 6 25 8 7 10 27 7 14 31 10 8 6 6 4 12 13
14 12 14 18 22 26 30 5 14 3 7 18 20 31 9 22 13 7 4 4 9 9 8 13 10 14 14 11 18 25 25 10 19 15 17 4 19 10 13 5 18 19 24 26 28
13 10 12 16 18 22 11 10 2 6 9 16 21 11 9 14 14 16 7 4 7 11 7 1 7 3 3 4 23 14 14 6 11 3 5 12 9 16 17 19 8 13 14 25 23
13 11 10 14 16 18 8 6 2 6 11 7 10 12 11 19 19 24 17 14 16 11 18 6 7 6 8 3 8 27 16 7 1 9 12 11 9 11 6 25 3 2 6 9 17
12 6 8 10 15 9 6 3 5 8 10 8 7 6 10 10 8 10 18 11 22 18 12 3 4 6 10 9 18 11 14 8 7 10 13 15 15 10 13 5 13 13 10 12 16
5 2 8 8 6 6 4 7 4 5 4 5 3 6 7 13 6 7 9 10 24 19 8 5 3 5 3 2 8 17 11 15 11 15 14 9 16 5 4 4 8 13 10 10 14
3 2 8 9 3 3 2 2 5 3 2 2 5 5 8 10 8 11 9 3 16 13 11 11 3 2 2 2 2 14 23 33 20 3 22 13 11 4 2 2 3 3 1 6 11
2 1 4 12 7 5 2 3 4 4 5 3 5 7 8 7 5 10 15 9 18 5 11 15 4 6 8 7 6 11 23 31 34 10 24 30 30 0 6 5 5 5 3 5 10
7 2 4 3 5 7 2 4 2 2 5 3 3 2 5 6 11 6 8 16 12 9 7 6 4 5 3 14 18 17 20 33 39 48 23 46 34 34 15 5 2 2 1 7 12
9 9 7 7 8 7 4 6 8 5 7 4 5 5 2 3 8 10 13 7 5 11 13 4 3 2 7 3 10 22 22 18 34 40 40 44 38 8 23 19 21 13 10 12 22
26 15 6 13 9 7 7 10 12 10 8 10 9 3 11 23 18 16 25 30 25 11 6 4 5 4 5 6 7 11 25 33 26 29 39 36 48 12 20 25 17 19 19 17 22
Wind_Direction_500mb
0 357 353 352 348 341 325 315 315 306 297 296 296 292 285 279 268 264 260 245 251 239 250 215 219 222 210 224 247 277 247 241 228 216 221 148 200 163 191 162 174 188 158 182 181
353 353 352 351 350 346 338 328 318 308 303 300 304 298 290 287 272 267 255 264 251 241 247 234 225 211 192 199 203 246 230 246 272 240 246 173 218 173 180 181 195 182 190 172 176
341 342 343 342 341 340 338 335 327 319 306 304 301 306 293 287 279 271 270 263 246 236 234 230 224 212 190 172 173 190 241 266 274 263 248 236 198 192 209 206 212 199 186 178 178
331 335 332 331 334 335 335 333 330 324 314 304 300 305 295 269 245 197 216 261 247 237 224 218 207 204 208 188 186 179 203 253 275 266 245 228 172 202 220 212 225 207 198 184 185
325 331 332 328 328 329 328 326 327 327 318 310 294 311 301 233 240 255 277 304 229 211 213 203 196 203 201 191 187 208 194 227 247 248 239 209 213 229 237 226 242 193 194 197 193
327 330 334 331 326 326 327 325 324 324 319 309 296 303 296 229 265 257 268 295 224 193 200 200 202 207 205 200 189 202 215 213 245 225 229 229 231 185 217 217 221 216 202 201 202
325 331 329 329 329 324 323 320 320 319 312 303 293 301 283 273 282 264 248 251 217 194 197 198 208 196 165 180 221 182 201 220 224 204 205 208 236 228 214 212 197 206 205 203 204
334 336 330 330 332 330 326 326 324 314 315 302 280 282 266 280 299 241 212 217 220 208 204 204 193 198 190 133 129 186 206 209 229 214 227 193 245 235 219 213 223 206 211 210 209
337 338 332 336 334 331 332 334 333 321 330 323 270 236 284 295 301 284 202 190 206 184 203 211 195 190 148 167 156 192 212 218 219 214 206 208 234 239 218 205 231 217 214 217 213
334 334 336 337 336 336 338 345 357 347 331 347 30 276 270 298 334 247 167 174 165 160 142 166 191 187 194 191 203 196 215 213 216 192 224 203 230 195 181 215 221 229 223 220 221
331 332 336 336 340 343 344 356 9 352 346 311 297 282 289 320 345 179 171 159 159 164 159 178 178 199 196 197 225 198 202 216 219 179 203 217 229 227 208 210 223 230 224 227 230
334 334 340 338 343 351 352 31 13 318 309 338 324 289 316 296 341 141 171 170 181 174 152 166 215 213 205 195 192 188 194 204 139 123 213 225 239 241 239 238 226 234 230 226 236
336 334 339 340 343 355 359 4 352 342 282 314 350 339 355 38 58 27 187 300 199 176 183 194 276 166 180 176 182 193 213 184 210 123 101 190 244 235 249 248 245 241 246 244 237
335 339 342 346 349 350 348 342 338 338 302 4 343 3 346 333 77 40 231 299 161 192 183 209 156 175 184 189 193 186 172 160 133 166 220 349 254 219 219 229 226 236 235 239 239
330 338 342 352 347 346 335 334 330 343 22 339 326 337 336 313 328 37 69 127 292 188 193 170 163 171 175 196 195 203 144 126 106 116 157 195 258 248 138 226 226 221 230 238 245
327 333 343 351 347 340 335 332 337 311 348 343 323 347 356 333 334 91 83 33 314 148 221 116 142 170 162 119 181 130 114 52 56 40 254 217 234 251 227 212 234 246 228 237 241
332 337 346 349 345 342 338 339 34 60 340 330 329 335 344 316 253 212 111 100 45 319 169 94 146 324 143 111 149 172 157 137 176 208 236 145 233 246 241 249 198 286 198 185 201
2 2 354 354 346 344 345 38 58 82 333 306 319 320 11 348 3 333 121 94 118 192 251 161 174 193 169 178 182 187 184 168 195 202 213 133 237 221 243 231 254 257 266 258 260
1 356 359 356 353 353 2 52 146 195 327 328 325 341 344 355 339 348 36 346 158 156 316 164 107 226 167 152 159 180 207 107 107 47 188 201 258 254 281 270 215 235 261 259 247
354 339 354 4 356 353 61 98 220 236 327 301 17 357 335 337 8 7 6 10 355 195 226 25 106 31 290 89 105 205 145 170 164 216 241 214 269 259 242 249 2 125 261 266 227
340 331 342 354 349 34 74 151 274 267 307 334 6 316 305 332 359 11 359 45 350 328 254 177 327 61 130 209 178 151 190 200 233 236 247 262 254 220 244 334 312 307 288 284 216
320 347 330 338 17 52 100 179 276 316 340 349 302 275 302 323 339 358 21 349 349 329 334 33 22 205 100 46 219 211 225 200 203 202 234 285 251 132 158 338 311 320 274 268 212
260 267 355 27 100 89 97 264 252 230 291 356 323 338 324 311 313 25 358 329 337 24 354 337 196 174 78 274 207 219 204 201 211 16 223 221 246 62 214 289 346 9 107 190 213
206 200 55 50 78 116 112 70 317 262 263 281 309 323 317 325 317 330 348 359 348 351 13 336 225 232 258 23 338 214 215 213 210 206 226 235 244 241 213 167 70 56 114 184 197
190 171 146 160 175 126 156 128 309 255 231 230 148 197 337 328 327 0 344 332 348 6 338 347 320 337 332 345 274 263 247 222 216 231 224 252 244 238 207 166 131 173 245 200 183
190 160 127 142 124 165 198 221 207 238 208 201 202 165 294 265 287 299 336 345 313 337 344 42 293 307 264 259 234 235 251 261 233 242 248 256 265 271 263 258 254 217 220 211 177
199 197 159 169 174 181 218 207 204 192 221 235 189 241 269 276 268 272 280 271 262 283 291 301 310 283 252 323 286 242 215 216 236 238 237 251 251 230 240 246 243 230 226 229 205
Wind_Speed_850mb
29 31 32 33 36 37 38 38 41 45 43 44 47 47 49 54 55 61 64 59 56 49 35 28 22 30 46 51 22 15 9 19 27 19 10 9 13 7 14 14 13 16 3 11 43
29 31 34 36 37 39 40 40 44 44 45 45 46 52 52 53 56 78 73 61 65 50 43 47 30 24 27 35 28 11 7 21 12 17 9 5 13 15 14 18 16 17 17 21 50
29 30 35 39 41 42 43 43 42 43 47 45 47 54 47 44 46 74 61 64 68 54 51 38 36 30 28 26 27 15 13 26 25 21 9 6 8 13 15 19 26 33 33 34 56
27 30 34 39 44 45 46 47 46 44 44 46 43 49 41 33 16 8 19 39 60 57 53 49 29 43 21 25 43 17 38 54 46 25 11 8 8 10 25 10 8 17 37 40 58
29 33 37 37 42 46 50 52 51 49 47 43 40 49 45 28 37 37 26 22 37 61 60 51 41 51 30 22 33 29 38 58 57 28 20 11 14 9 17 24 6 20 37 42 52
31 35 40 38 40 43 50 54 58 54 49 41 37 41 43 14 35 45 60 31 29 64 60 57 32 45 33 20 41 41 41 36 35 38 19 16 12 9 8 19 23 19 36 43 48
31 35 39 39 43 47 50 56 60 58 51 39 29 36 35 27 30 25 45 23 22 54 50 49 37 39 21 17 26 18 34 31 32 21 14 16 18 20 21 10 18 26 29 36 43
28 32 36 41 46 50 53 59 55 53 42 31 25 28 20 24 34 28 35 26 25 36 38 40 39 27 16 18 13 25 19 33 40 25 20 26 37 27 30 21 21 24 29 35 43
27 31 36 41 47 53 55 54 49 39 8 25 18 19 14 12 27 36 35 28 17 27 36 32 35 24 11 22 15 31 33 47 27 26 23 32 24 28 12 28 34 25 30 33 34
27 30 36 42 48 52 50 53 43 18 31 7 7 11 7 12 26 16 34 21 18 27 27 35 29 22 23 30 39 37 44 21 36 17 27 26 32 10 8 18 28 30 22 29 35
25 30 35 41 45 42 51 57 30 14 46 14 42 32 34 25 21 15 32 21 17 34 22 37 23 38 55 47 30 31 28 36 14 11 18 38 36 35 25 15 17 29 27 29 38
25 29 32 38 38 35 39 28 24 26 26 20 22 20 20 19 13 14 33 12 20 31 22 20 37 33 32 29 28 28 32 29 5 4 11 9 34 30 26 27 40 33 28 30 41
26 28 31 34 28 34 29 38 27 22 11 23 19 15 16 7 6 11 15 2 20 29 31 26 2 21 27 26 26 16 29 22 13 9 3 6 16 22 22 34 26 40 49 44 42
25 27 30 30 15 33 22 42 30 19 5 20 20 22 22 13 3 12 9 2 7 31 25 8 7 31 31 31 29 22 6 16 24 17 12 1 14 19 25 27 23 38 42 48 53
24 25 26 24 23 26 38 43 35 5 7 31 15 15 34 8 7 18 20 11 3 12 14 12 21 27 28 27 28 16 18 10 11 11 2 10 11 29 8 20 26 30 45 55 65
21 22 20 19 22 29 36 40 17 3 10 14 17 31 26 10 4 6 8 13 10 7 5 4 3 14 11 6 20 26 18 12 9 2 14 17 19 25 23 11 9 21 20 30 32
17 15 16 20 22 28 36 23 4 9 13 22 20 28 24 10 3 4 3 7 7 7 10 5 5 2 13 18 16 6 25 8 7 10 27 7 14 31 10 8 6 6 4 12 13
14 12 14 18 22 26 30 5 14 3 7 18 20 31 9 22 13 7 4 4 9 9 8 13 10 14 14 11 18 25 25 10 19 15 17 4 19 10 13 5 18 19 24 26 28
13 10 12 16 18 22 11 10 2 6 9 16 21 11 9 14 14 16 7 4 7 11 7 1 7 3 3 4 23 14 14 6 11 3 5 12 9 16 17 19 8 13 14 25 23
13 11 10 14 16 18 8 6 2 6 11 7 10 12 11 19 19 24 17 14 16 11 18 6 7 6 8 3 8 27 16 7 1 9 12 11 9 11 6 25 3 2 6 9 17
12 6 8 10 15 9 6 3 5 8 10 8 7 6 10 10 8 10 18 11 22 18 12 3 4 6 10 9 18 11 14 8 7 10 13 15 15 10 13 5 13 13 10 12 16
5 2 8 8 6 6 4 7 4 5 4 5 3 6 7 13 6 7 9 10 24 19 8 5 3 5 3 2 8 17 11 15 11 15 14 9 16 5 4 4 8 13 10 10 14
3 2 8 9 3 3 2 2 5 3 2 2 5 5 8 10 8 11 9 3 16 13 11 11 3 2 2 2 2 14 23 33 20 3 22 13 11 4 2 2 3 3 1 6 11
2 1 4 12 7 5 2 3 4 4 5 3 5 7 8 7 5 10 15 9 18 5 11 15 4 6 8 7 6 11 23 31 34 10 24 30 30 0 6 5 5 5 3 5 10
7 2 4 3 5 7 2 4 2 2 5 3 3 2 5 6 11 6 8 16 12 9 7 6 4 5 3 14 18 17 20 33 39 48 23 46 34 34 15 5 2 2 1 7 12
9 9 7 7 8 7 4 6 8 5 7 4 5 5 2 3 8 10 13 7 5 11 13 4 3 2 7 3 10 22 22 18 34 40 40 44 38 8 23 19 21 13 10 12 22
26 15 6 13 9 7 7 10 12 10 8 10 9 3 11 23 18 16 25 30 25 11 6 4 5 4 5 6 7 11 25 33 26 29 39 36 48 12 20 25 17 19 19 17 22
Wind_Direction_850mb
0 357 353 352 348 341 325 315 315 306 297 296 296 292 285 279 268 264 260 245 251 239 250 215 219 222 210 224 247 277 247 241 228 216 221 148 200 163 191 162 174 188 158 182 181
353 353 352 351 350 346 338 328 318 308 303 300 304 298 290 287 272 267 255 264 251 241 247 234 225 211 192 199 203 246 230 246 272 240 246 173 218 173 180 181 195 182 190 172 176
341 342 343 342 341 340 338 335 327 319 306 304 301 306 293 287 279 271 270 263 246 236 234 230 224 212 190 172 173 190 241 266 274 263 248 236 198 192 209 206 212 199 186 178 178
331 335 332 331 334 335 335 333 330 324 314 304 300 305 295 269 245 197 216 261 247 237 224 218 207 204 208 188 186 179 203 253 275 266 245 228 172 202 220 212 225 207 198 184 185
325 331 332 328 328 329 328 326 327 327 318 310 294 311 301 233 240 255 277 304 229 211 213 203 196 203 201 191 187 208 194 227 247 248 239 209 213 229 237 226 242 193 194 197 193
327 330 334 331 326 326 327 325 324 324 319 309 296 303 296 229 265 257 268 295 224 193 200 200 202 207 205 200 189 202 215 213 245 225 229 229 231 185 217 217 221 216 202 201 202
325 331 329 329 329 324 323 320 320 319 312 303 293 301 283 273 282 264 248 251 217 194 197 198 208 196 165 180 221 182 201 220 224 204 205 208 236 228 214 212 197 206 205 203 204
334 336 330 330 332 330 326 326 324 314 315 302 280 282 266 280 299 241 212 217 220 208 204 204 193 198 190 133 129 186 206 209 229 214 227 193 245 235 219 213 223 206 211 210 209
337 338 332 336 334 331 332 334 333 321 330 323 270 236 284 295 301 284 202 190 206 184 203 211 195 190 148 167 156 192 212 218 219 214 206 208 234 239 218 205 231 217 214 217 213
334 334 336 337 336 336 338 345 357 347 331 347 30 276 270 298 334 247 167 174 165 160 142 166 191 187 194 191 203 196 215 213 216 192 224 203 230 195 181 215 221 229 223 220 221
331 332 336 336 340 343 344 356 9 352 346 311 297 282 289 320 345 179 171 159 159 164 159 178 178 199 196 197 225 198 202 216 219 179 203 217 229 227 208 210 223 230 224 227 230
334 334 340 338 343 351 352 31 13 318 309 338 324 289 316 296 341 141 171 170 181 174 152 166 215 213 205 195 192 188 194 204 139 123 213 225 239 241 239 238 226 234 230 226 236
336 334 339 340 343 355 359 4 352 342 282 314 350 339 355 38 58 27 187 300 199 176 183 194 276 166 180 176 182 193 213 184 210 123 101 190 244 235 249 248 245 241 246 244 237
335 339 342 346 349 350 348 342 338 338 302 4 343 3 346 333 77 40 231 299 161 192 183 209 156 175 184 189 193 186 172 160 133 166 220 349 254 219 219 229 226 236 235 239 239
330 338 342 352 347 346 335 334 330 343 22 339 326 337 336 313 328 37 69 127 292 188 193 170 163 171 175 196 195 203 144 126 106 116 157 195 258 248 138 226 226 221 230 238 245
327 333 343 351 347 340 335 332 337 311 348 343 323 347 356 333 334 91 83 33 314 148 221 116 142 170 162 119 181 130 114 52 56 40 254 217 234 251 227 212 234 246 228 237 241
332 337 346 349 345 342 338 339 34 60 340 330 329 335 344 316 253 212 111 100 45 319 169 94 146 324 143 111 149 172 157 137 176 208 236 145 233 246 241 249 198 286 198 185 201
2 2 354 354 346 344 345 38 58 82 333 306 319 320 11 348 3 333 121 94 118 192 251 161 174 193 169 178 182 187 184 168 195 202 213 133 237 221 243 231 254 257 266 258 260
1 356 359 356 353 353 2 52 146 195 327 328 325 341 344 355 339 348 36 346 158 156 316 164 107 226 167 152 159 180 207 107 107 47 188 201 258 254 281 270 215 235 261 259 247
354 339 354 4 356 353 61 98 220 236 327 301 17 357 335 337 8 7 6 10 355 195 226 25 106 31 290 89 105 205 145 170 164 216 241 214 269 259 242 249 2 125 261 266 227
340 331 342 354 349 34 74 151 274 267 307 334 6 316 305 332 359 11 359 45 350 328 254 177 327 61 130 209 178 151 190 200 233 236 247 262 254 220 244 334 312 307 288 284 216
320 347 330 338 17 52 100 179 276 316 340 349 302 275 302 323 339 358 21 349 349 329 334 33 22 205 100 46 219 211 225 200 203 202 234 285 251 132 158 338 311 320 274 268 212
260 267 355 27 100 89 97 264 252 230 291 356 323 338 324 311 313 25 358 329 337 24 354 337 196 174 78 274 207 219 204 201 211 16 223 221 246 62 214 289 346 9 107 190 213
206 200 55 50 78 116 112 70 317 262 263 281 309 323 317 325 317 330 348 359 348 351 13 336 225 232 258 23 338 214 215 213 210 206 226 235 244 241 213 167 70 56 114 184 197
190 171 146 160 175 126 156 128 309 255 231 230 148 197 337 328 327 0 344 332 348 6 338 347 320 337 332 345 274 263 247 222 216 231 224 252 244 238 207 166 131 173 245 200 183
190 160 127 142 124 165 198 221 207 238 208 201 202 165 294 265 287 299 336 345 313 337 344 42 293 307 264 259 234 235 251 261 233 242 248 256 265 271 263 258 254 217 220 211 177
199 197 159 169 174 181 218 207 204 192 221 235 189 241 269 276 268 272 280 271 262 283 291 301 310 283 252 323 286 242 215 216 236 238 237 251 251 230 240 246 243 230 226 229 205